This demonstration page uses our WeatherBlox Daily Observations layout. Learn more.

40.92945, -100.16068

Hourly Observations for December 22, 2015

Temp ( °F °C ) Dew Point ( °F °C ) Humidity (%) Winds ( mph kmh ) Pressure ( in mb ) Visibility ( mi km ) Precip ( " mm )
12:15 am 00:15 Clear 23 -5 21 -6 93 93 SE 8 13 29.83 1010 10 16.09344 0 0
12:35 am 00:35 Clear 27 -3 23 -5 86 86 SSE 9 15 29.83 1010 10 16.09344 0 0
12:55 am 00:55 Clear 25 -4 23 -5 93 93 SSE 8 13 29.83 1010 10 16.09344 0 0
1:15 am 01:15 Clear 30 -1 25 -4 80 80 SE 8 13 29.77 1008 10 16.09344 0 0
1:35 am 01:35 Clear 30 -1 25 -4 80 80 SE 6 9 29.77 1008 10 16.09344 0 0
1:55 am 01:55 Clear 30 -1 27 -3 86 86 ESE 7 11 29.74 1007 10 16.09344 0 0
2:15 am 02:15 Clear 32 0 25 -4 75 75 ESE 8 13 29.68 1005 10 16.09344 0 0
2:35 am 02:35 Clear 30 -1 25 -4 80 80 SE 6 9 29.71 1006 10 16.09344 0 0
2:55 am 02:55 Clear 30 -1 27 -3 86 86 SE 7 11 29.71 1006 10 16.09344 0 0
3:15 am 03:15 Clear 34 1 32 0 93 93 SSE 10 17 29.65 1004 10 16.09344 0 0
3:35 am 03:35 Clear 36 2 32 0 87 87 SSE 14 22 29.65 1004 10 16.09344 0 0
3:55 am 03:55 Clear 36 2 32 0 87 87 SSE 13 20 29.65 1004 10 16.09344 0 0
4:15 am 04:15 Clear 34 1 32 0 93 93 SSE 13 20 29.62 1003 10 16.09344 0 0
4:35 am 04:35 Clear 36 2 32 0 87 87 S 14 22 29.62 1003 10 16.09344 0 0
4:55 am 04:55 Clear 34 1 32 0 93 93 S 13 20 29.59 1002 10 16.09344 0 0
5:15 am 05:15 Clear 34 1 32 0 93 93 S 13 20 29.59 1002 10 16.09344 0 0
5:35 am 05:35 Clear 34 1 32 0 93 93 SSE 10 17 29.59 1002 10 16.09344 0 0
5:55 am 05:55 Clear 34 1 32 0 93 93 SSE 7 11 29.59 1002 10 16.09344 0 0
6:15 am 06:15 Clear 34 1 32 0 93 93 SSE 10 17 29.56 1001 10 16.09344 0 0
6:35 am 06:35 Clear 34 1 32 0 93 93 SSE 9 15 29.56 1001 10 16.09344 0 0
6:55 am 06:55 Clear 34 1 30 -1 87 87 SE 9 15 29.53 1000 10 16.09344 0 0
7:15 am 07:15 Clear 32 0 30 -1 93 93 ESE 7 11 29.53 1000 10 16.09344 0 0
7:35 am 07:35 Clear 32 0 30 -1 93 93 E 6 9 29.56 1001 10 16.09344 0 0
7:55 am 07:55 Clear 32 0 30 -1 93 93 SSE 13 20 29.53 1000 10 16.09344 0 0
8:15 am 08:15 Sunny 32 0 30 -1 93 93 ESE 7 11 29.53 1000 10 16.09344 0 0
8:35 am 08:35 Sunny 32 0 30 -1 93 93 SE 6 9 29.53 1000 10 16.09344 0 0
8:55 am 08:55 Sunny 34 1 30 -1 87 87 SSE 7 11 29.5 999 10 16.09344 0 0
9:15 am 09:15 Sunny 32 0 30 -1 93 93 SE 6 9 29.5 999 10 16.09344 0 0
9:35 am 09:35 Sunny 34 1 32 0 93 93 SSE 12 19 29.44 997 10 16.09344 0 0
9:55 am 09:55 Sunny 34 1 32 0 93 93 S 7 11 29.5 999 10 16.09344 0 0
10:15 am 10:15 Sunny 36 2 32 0 87 87 S 13 20 29.47 998 10 16.09344 0 0
10:35 am 10:35 Sunny 37 3 34 1 87 87 S 14 22 29.47 998 10 16.09344 0 0
10:55 am 10:55 Sunny 39 4 34 1 81 81 S 8 13 29.47 998 10 16.09344 0 0
11:15 am 11:15 Sunny 37 3 34 1 87 87 S 10 17 29.47 998 10 16.09344 0 0
11:35 am 11:35 Sunny 39 4 34 1 81 81 S 9 15 29.44 997 10 16.09344 0 0
11:55 am 11:55 Sunny 39 4 34 1 81 81 S 8 13 29.44 997 10 16.09344 0 0
12:15 pm 12:15 Sunny 39 4 34 1 81 81 S 8 13 29.44 997 10 16.09344 0 0
12:35 pm 12:35 Sunny 39 4 34 1 81 81 S 7 11 29.38 995 10 16.09344 0 0
12:55 pm 12:55 Sunny 39 4 34 1 81 81 S 3 6 29.38 995 10 16.09344 0 0
1:15 pm 13:15 Sunny 41 5 34 1 76 76 WSW 7 11 29.38 995 10 16.09344 0 0
1:35 pm 13:35 Sunny 41 5 34 1 76 76 WNW 9 15 29.38 995 10 16.09344 0 0
1:55 pm 13:55 Sunny 43 6 34 1 71 71 W 6 9 29.38 995 10 16.09344 0 0
2:15 pm 14:15 Sunny 43 6 36 2 76 76 NNW 5 7 29.38 995 10 16.09344 0 0
2:35 pm 14:35 Sunny 43 6 36 2 76 76 WNW 5 7 29.38 995 10 16.09344 0 0
2:55 pm 14:55 Sunny 43 6 36 2 76 76 S 7 11 29.38 995 10 16.09344 0 0
3:15 pm 15:15 Sunny 41 5 36 2 81 81 S 3 6 29.38 995 10 16.09344 0 0
3:35 pm 15:35 Sunny 41 5 36 2 81 81 SSE 5 7 29.38 995 10 16.09344 0 0
3:55 pm 15:55 Sunny 41 5 36 2 81 81 Calm 29.38 995 10 16.09344 0 0
4:15 pm 16:15 Sunny 41 5 36 2 81 81 Calm 29.38 995 7 11.265408 0 0
4:35 pm 16:35 Sunny 39 4 34 1 81 81 ESE 3 6 29.38 995 10 16.09344 0 0
4:55 pm 16:55 Sunny 39 4 36 2 87 87 ESE 3 6 29.38 995 10 16.09344 0 0
5:15 pm 17:15 Partly Cloudy 39 4 34 1 81 81 SE 6 9 29.38 995 10 16.09344 0 0
5:35 pm 17:35 Mostly Cloudy 39 4 34 1 81 81 SE 7 11 29.38 995 10 16.09344 0 0
5:55 pm 17:55 Cloudy 39 4 34 1 81 81 ESE 5 7 29.38 995 10 16.09344 0 0
6:15 pm 18:15 Mostly Cloudy 37 3 34 1 87 87 ESE 3 6 29.41 996 10 16.09344 0 0
6:35 pm 18:35 Mostly Cloudy 36 2 32 0 87 87 Calm 29.41 996 10 16.09344 0 0
6:55 pm 18:55 Cloudy 36 2 32 0 87 87 Calm 29.41 996 10 16.09344 0 0
7:15 pm 19:15 Mostly Cloudy 36 2 32 0 87 87 Calm 29.41 996 10 16.09344 0 0
7:35 pm 19:35 Partly Cloudy 34 1 32 0 93 93 E 3 6 29.41 996 10 16.09344 0 0
7:55 pm 19:55 Clear 34 1 32 0 93 93 Calm 29.41 996 10 16.09344 0 0
8:15 pm 20:15 Clear 34 1 32 0 93 93 Calm 29.41 996 10 16.09344 0 0
8:35 pm 20:35 Clear 34 1 32 0 93 93 Calm 29.41 996 10 16.09344 0 0
8:55 pm 20:55 Clear 32 0 30 -1 93 93 Calm 29.44 997 10 16.09344 0 0
9:15 pm 21:15 Clear 32 0 30 -1 93 93 Calm 29.44 997 10 16.09344 0 0
9:35 pm 21:35 Clear 32 0 30 -1 93 93 Calm 29.44 997 10 16.09344 0 0
9:55 pm 21:55 Clear 32 0 32 0 100 100 N 3 6 29.44 997 10 16.09344 0 0
10:15 pm 22:15 Clear 32 0 32 0 100 100 N 3 6 29.44 997 10 16.09344 0 0
10:35 pm 22:35 Clear 32 0 32 0 100 100 N 6 9 29.44 997 10 16.09344 0 0
10:55 pm 22:55 Clear 34 1 32 0 93 93 NNW 6 9 29.41 996 10 16.09344 0 0
11:15 pm 23:15 Clear 34 1 32 0 93 93 NNW 6 9 29.41 996 10 16.09344 0 0
11:35 pm 23:35 Clear 34 1 32 0 93 93 NW 8 13 29.41 996 10 16.09344 0 0
11:55 pm 23:55 Clear 34 1 32 0 93 93 NNW 6 9 29.41 996 10 16.09344 0 0

Powered by AerisWeather